This is the latest recevied weather packets stored in our database for station/object K5SVV. If no packets are shown the sender has not sent any weather packets the latest 10 day(s).
| Time | Temp. | Humidity | Pressure | Rain* | Wind** | Luminosity | Snow |
|---|---|---|---|---|---|---|---|
| 1777682138 | 13.89° C | 79% | 1015.5 hPa | 0 mm | - | 13 W/m² | - |
| 1777681834 | 14.44° C | 79% | 1015.3 hPa | 0 mm | - | 18 W/m² | - |
| 1777681531 | 14.44° C | 78% | 1015.4 hPa | 0 mm | - | 23 W/m² | - |
| 1777681228 | 14.44° C | 77% | 1015.2 hPa | 0 mm | - | 37 W/m² | - |
| 1777680926 | 14.44° C | 77% | 1015.1 hPa | 0 mm | - | 46 W/m² | - |
| 1777680623 | 15° C | 76% | 1015 hPa | 0 mm | - | 53 W/m² | - |
| 1777680321 | 15° C | 76% | 1014.9 hPa | 0 mm | - | 62 W/m² | - |
| 1777680018 | 15° C | 76% | 1015.1 hPa | 0 mm | - | 84 W/m² | - |
| 1777679713 | 14.44° C | 76% | 1015 hPa | 0 mm | - | 96 W/m² | - |
| 1777679409 | 14.44° C | 76% | 1014.9 hPa | 0 mm | - | 82 W/m² | - |
| 1777679105 | 15° C | 75% | 1014.9 hPa | 0 mm | - | 42 W/m² | - |
| 1777678803 | 15° C | 75% | 1015 hPa | 0 mm | - | 35 W/m² | - |
| 1777678501 | 15° C | 75% | 1015 hPa | 0 mm | - | 47 W/m² | - |
| 1777678197 | 15° C | 74% | 1014.9 hPa | 0 mm | - | 65 W/m² | - |
| 1777677894 | 15° C | 72% | 1015.1 hPa | 0 mm | - | 89 W/m² | - |
| 1777677591 | 15° C | 73% | 1014.8 hPa | 0 mm | - | 107 W/m² | - |
| 1777677289 | 15° C | 75% | 1014.9 hPa | 0 mm | - | 144 W/m² | - |
| 1777676987 | 15° C | 75% | 1014.8 hPa | 0 mm | - | 137 W/m² | - |
| 1777676686 | 15° C | 73% | 1015 hPa | 0 mm | - | 137 W/m² | - |
| 1777676383 | 15.56° C | 71% | 1015 hPa | 0 mm | - | 91 W/m² | - |
| 1777676081 | 15.56° C | 68% | 1014.9 hPa | 0 mm | - | 95 W/m² | - |
| 1777675776 | 15.56° C | 68% | 1014.9 hPa | 0 mm | - | 117 W/m² | - |
| 1777675474 | 15.56° C | 69% | 1014.8 hPa | 0 mm | - | 112 W/m² | - |
| 1777675171 | 15.56° C | 70% | 1014.5 hPa | 0 mm | - | 100 W/m² | - |
| 1777674867 | 15.56° C | 70% | 1014.5 hPa | 0 mm | - | 97 W/m² | - |
* Rain latest hour (hover to see other rain measurements)
** Current wind speed in m/s (hover to see current wind gust speed)